Regional Weather Roundup
Issued by NWS

Home | Current Version | Previous Version | Graphics & Text | Print | Product List | Glossary On
Versions: 1 2 3 4 5 6 7 8 9 10 11 12 13 14 15 16 17 18 19 20 21 22 23 24 25 26 27 28 29 30 31 32 33 34 35 36 37 38 39 40 41 42 43 44 45 46 47 48 49 50
661
ASUS43 KDTX 261810
RWRMI
MICHIGAN HOURLY REGIONAL WEATHER ROUNDUP
NATIONAL WEATHER SERVICE DETROIT/PONTIAC MI
200 PM EDT SAT MAY 26 2018

NOTE: "FAIR" INDICATES FEW OR NO CLOUDS BELOW 12,000 FEET WITH NO
SIGNIFICANT WEATHER AND/OR OBSTRUCTION TO VISIBILITY.

MIZ047>049-052>055-059>063-066>070-074>076-081>083-261900-
SOUTHEAST LOWER MICHIGAN

CITY           SKY/WX    TMP DP  RH WIND       PRES   REMARKS
ADRIAN         PTSUNNY   79  66  64 SW9       29.81F
6HR MIN TEMP:  65; 6HR MAX TEMP:  80; 6HR PCP: TRACE;

ALMA           FAIR      82  67  60 S5G18     29.78F
6HR MIN TEMP:  68; 6HR MAX TEMP:  83;

ANN ARBOR      FAIR      79  66  64 S6        29.81F
BAD AXE        FAIR      82  60  47 N5        29.79F
6HR MIN TEMP:  69; 6HR MAX TEMP:  82;

CARO           FAIR      84  63  48 S5        29.78S
DETROIT CITY   PTSUNNY   77  64  64 CALM      29.81F
6HR MIN TEMP:  70; 6HR MAX TEMP:  77; 6HR PCP: TRACE;

DETROIT        PTSUNNY   81  61  50 CALM      29.82F
6HR MIN TEMP:  69; 6HR MAX TEMP:  81; 6HR PCP: TRACE;

FLINT          FAIR      80  63  55 MISG      29.80F
6HR MIN TEMP:  69; 6HR MAX TEMP:  81;

GROSSE ILE     CLOUDY    75  66  73 S6        29.81F
6HR MIN TEMP:  67; 6HR MAX TEMP:  75;

HILLSDALE      CLOUDY    81  64  57 S9        29.81F
HOWELL         PTSUNNY   79  65  62 SE5       29.81F
6HR MIN TEMP:  69; 6HR MAX TEMP:  79;


CITY           SKY/WX    TMP DP  RH WIND       PRES   REMARKS
JACKSON        PTSUNNY   81  66  60 S6        29.79F
6HR MIN TEMP:  69; 6HR MAX TEMP:  82;

LAMBERTVILLE   FAIR      82  65  56 S5        29.81F
6HR MIN TEMP:  69; 6HR MAX TEMP:  83;

LANSING        FAIR      80  65  59 S9        29.79F
6HR MIN TEMP:  69; 6HR MAX TEMP:  82;

LAPEER         PTSUNNY   79  62  55 SW5       29.81F
6HR MIN TEMP:  68; 6HR MAX TEMP:  80;

MASON          FAIR      82  60  48 SE5       29.80F
6HR MIN TEMP:  69; 6HR MAX TEMP:  82;

MONROE         RAIN      78  66  67 SE9       29.80F
6HR MIN TEMP:  67; 6HR MAX TEMP:  80;

MT. CLEMENS    CLOUDY    73  69  89 CALM      29.80S
6HR MIN TEMP:  68; 6HR MAX TEMP:  75; 6HR PCP: TRACE;

PONTIAC        PTSUNNY   75  62  64 S6        29.82S
6HR MIN TEMP:  69; 6HR MAX TEMP:  75;

PORT HOPE        N/A     67  60  78 CALM      29.77F
6HR MIN TEMP:  59; 6HR MAX TEMP:  68;

PORT HURON     CLOUDY    73  63  68 CALM      29.82S
TRI CITIES     FAIR      83  63  50 SE6       29.78F
6HR MIN TEMP:  69; 6HR MAX TEMP:  83;

MIDLAND        FAIR      82  64  52 CALM      29.76F
6HR MIN TEMP:  67; 6HR MAX TEMP:  83;

TROY           CLOUDY    75  60  59 CALM      29.84S
SAGINAW HB     FAIR      82  61  47 S6        29.78F
$$
MIZ043>046-050>051-056>058-064>065-071>073-077>080-261900-
SOUTHWEST LOWER MICHIGAN

CITY           SKY/WX    TMP DP  RH WIND       PRES   REMARKS
BATTLE CREEK   PTSUNNY   82  65  56 SW10      29.80F
6HR MIN TEMP:  68; 6HR MAX TEMP:  83;

BENTON HARBOR  FAIR      79  63  57 W6        29.80S
6HR MIN TEMP:  70; 6HR MAX TEMP:  79;

BIG RAPIDS     CLOUDY    81  64  55 S6        29.76F
6HR MIN TEMP:  65; 6HR MAX TEMP:  82;

COLDWATER      FAIR      84  57  38 SW8G16    29.80F
6HR MIN TEMP:  69; 6HR MAX TEMP:  85;

FREMONT        FAIR      82  65  56 S7        29.76F
6HR MIN TEMP:  67; 6HR MAX TEMP:  82;

HOLLAND        FAIR      76  64  66 W8        29.79F
6HR MIN TEMP:  69; 6HR MAX TEMP:  76;

GRAND RAPIDS   PTSUNNY   81  66  60 S6        29.78F
6HR MIN TEMP:  68; 6HR MAX TEMP:  82;

IONIA          FAIR      82  64  53 SW7       29.77F
6HR MIN TEMP:  68; 6HR MAX TEMP:  83;

KALAMAZOO      FAIR      83  63  50 W10       29.79F
6HR MIN TEMP:  69; 6HR MAX TEMP:  83;

LUDINGTON      FAIR      75  65  71 W6        29.75F
6HR MIN TEMP:  65; 6HR MAX TEMP:  75;

MARSHALL       FAIR      80  63  56 SW8       29.79F
6HR MIN TEMP:  67; 6HR MAX TEMP:  82;

MOUNT PLEASANT FAIR      83  64  51 S8        29.76F
6HR MIN TEMP:  70; 6HR MAX TEMP:  84;

MUSKEGON       FAIR      77  64  64 SW6       29.78F
6HR MIN TEMP:  69; 6HR MAX TEMP:  77;

SOUTH HAVEN    FAIR      78  60  53 W7        29.80S
$$
MIZ016>042-261900-
NORTHERN LOWER MICHIGAN

CITY           SKY/WX    TMP DP  RH WIND       PRES   REMARKS
ALPENA         FAIR      83  65  54 SE13      29.77F
6HR MIN TEMP:  64; 6HR MAX TEMP:  84; 6HR PCP: TRACE;

BEAVER ISLAND  FAIR      76  58  54 NW9       29.77R
6HR MIN TEMP:  62; 6HR MAX TEMP:  79;

BELLAIRE       FAIR      83  62  48 S3        29.74F
6HR MIN TEMP:  66; 6HR MAX TEMP:  83;

CADILLAC       FAIR      84  64  50 S5        29.77S
CHARLEVOIX     FAIR      75  62  63 N5        29.78S
6HR MIN TEMP:  64; 6HR MAX TEMP:  78;

FRANKFORT      FAIR      79  66  62 W7        29.74F
GAYLORD        PTSUNNY   82  59  45 VRB5      29.77F
6HR MIN TEMP:  66; 6HR MAX TEMP:  83;

GRAYLING       FAIR      84  60  45 CALM      29.74F
6HR MIN TEMP:  69; 6HR MAX TEMP:  85;

HARBOR SPRINGS FAIR      73  59  61 SW5       29.75F
HOUGHTON LAKE  FAIR      83  59  44 VRB6      29.77F
6HR MIN TEMP:  67; 6HR MAX TEMP:  84;

MANISTEE       FAIR      81  67  62 W7        29.74F
OSCODA         FAIR      83  58  42 SE10      29.77S
6HR MIN TEMP:  65; 6HR MAX TEMP:  83;

PELLSTON       FAIR      82  61  48 NE9       29.75F
6HR MIN TEMP:  64; 6HR MAX TEMP:  83;

ROGERS CITY    FAIR      57  52  84 NE5       29.80F
TRAVERSE CITY  FAIR      79  62  56 N8        29.72F
6HR MIN TEMP:  70; 6HR MAX TEMP:  82;

$$
MIZ007>008-015-261900-
EASTERN UPPER MICHIGAN

CITY           SKY/WX    TMP DP  RH WIND       PRES   REMARKS
KINROSS        FAIR      76  61  59 S8G17     29.78S
6HR MIN TEMP:  63; 6HR MAX TEMP:  76;

MACKINAC ISLAN PTSUNNY   70  59  68 E6        29.77F
6HR MIN TEMP:  61; 6HR MAX TEMP:  71;

NEWBERRY       FAIR      76  62  60 S10       29.75S
6HR MIN TEMP:  60; 6HR MAX TEMP:  77;

S. S. MARIE    FAIR      74  65  73 SE5       29.76F
6HR MIN TEMP:  63; 6HR MAX TEMP:  75;

MUNISING         N/A     62  60  93 NW6       29.72S
6HR MIN TEMP:  59; 6HR MAX TEMP:  75;

$$
MIZ004>006-011>014-085-261900-
CENTRAL UPPER MICHIGAN

CITY           SKY/WX    TMP DP  RH WIND       PRES   REMARKS
MANISTIQUE     FAIR      64  63  94 S7        29.76S
6HR MIN TEMP:  59; 6HR MAX TEMP:  66;

ESCANABA       FAIR      63  56  78 E8        29.74R
6HR MIN TEMP:  62; 6HR MAX TEMP:  75;

MENOMINEE      FAIR      82  64  54 SE10      29.72F
6HR MIN TEMP:  63; 6HR MAX TEMP:  83;

SAWYER-GWINN   RAIN      72  63  73 N5        29.74S
$$
MIZ001>003-009>011-084-261900-
WESTERN UPPER MICHIGAN

CITY           SKY/WX    TMP DP  RH WIND       PRES   REMARKS
IRON MOUNTAIN  FAIR      86  65  49 VRB7      29.69F
6HR MIN TEMP:  61; 6HR MAX TEMP:  86;

HOUGHTON       FAIR      79  60  52 VRB5      29.68F
6HR MIN TEMP:  65; 6HR MAX TEMP:  79; 6HR PCP: TRACE;

COPPER HARBOR    N/A     62  52  69 CALM      29.68F
6HR MIN TEMP:  41; 6HR MAX TEMP:  72;

IRONWOOD       FAIR      85  60  42 W8        29.68S
6HR MIN TEMP:  65; 6HR MAX TEMP:  85;

$$

ABBREVIATIONS USED IN REMARKS
   TC - TEMPERATURE IN CELSIUS
  WCI - WIND CHILL INDEX
   HX - HEAT INDEX
  VSB - VISIBILITY





USA.gov is the U.S. government's official web portal to all federal, state and local government web resources and services.